Location: St Paul
(33.4390°N, 83.7350°W)
Time: 08:32:02
(UTC-05:00)

NOSS 2-1 (E) - Pass Details

Date: 06 October 2017
Orbit: 505 x 1700 km, 63.3° (Epoch: 13 November)

Event Time Altitude Azimuth Distance (km) Brightness Sun altitude
Rises 19:37:38 0° 218° (SW) 2,624 7.4 -6.1°
Reaches altitude 10° 19:39:48 10° 222° (SW) 1,712 6.5 -6.5°
Maximum altitude 19:43:26 57° 302° (WNW) 605 3.9 -7.3°
Drops below altitude 10° 19:47:20 10° 23° (NNE) 1,834 5.8 -8.1°
Sets 19:49:43 0° 27° (NNE) 2,835 6.7 -8.6°
